N612HS KMEM-KMEM

Flight info

Callsign N612HS
Flight time N/A
Altitude VFR/013
Route PATTERN
Aircraft PA24/L-DOV/C

Departure

Time 2026-05-04 00:31
Airport Memphis International Airport (KMEM)

Arrival

Time N/A
Airport Memphis International Airport (KMEM)
Time Latitude Longitude Altitude Speed Heading
2026-05-04 00:22 35.05458 -89.98109 272 ft 0 kts 91°
2026-05-04 00:26 35.05460 -89.98104 272 ft 5 kts 36°
2026-05-04 00:26 35.05482 -89.98252 267 ft 14 kts 274°
2026-05-04 00:26 35.05486 -89.98291 266 ft 20 kts 275°
2026-05-04 00:26 35.05548 -89.98382 262 ft 10 kts 319°
2026-05-04 00:27 35.05571 -89.98441 260 ft 0 kts 274°
2026-05-04 00:28 35.05533 -89.98510 262 ft 21 kts 182°
2026-05-04 00:28 35.05426 -89.98510 271 ft 14 kts 180°
2026-05-04 00:28 35.05321 -89.98512 278 ft 16 kts 182°
2026-05-04 00:29 35.05215 -89.98513 282 ft 12 kts 180°
2026-05-04 00:29 35.05115 -89.98523 291 ft 12 kts 195°
2026-05-04 00:29 35.05062 -89.98549 294 ft 7 kts 207°
2026-05-04 00:29 35.05003 -89.98586 296 ft 18 kts 206°
2026-05-04 00:30 35.04966 -89.98609 297 ft 15 kts 210°
2026-05-04 00:30 35.04928 -89.98702 300 ft 24 kts 246°
2026-05-04 00:30 35.04567 -89.98732 333 ft 78 kts 182°
2026-05-04 00:30 35.03977 -89.98707 512 ft 86 kts 180°
2026-05-04 00:31 35.03327 -89.98706 627 ft 98 kts 183°
2026-05-04 00:31 35.02632 -89.98718 776 ft 100 kts 180°
2026-05-04 00:31 35.01955 -89.98694 927 ft 96 kts 180°
2026-05-04 00:31 35.01299 -89.98642 1068 ft 92 kts 179°
2026-05-04 00:32 35.00746 -89.98326 1145 ft 99 kts 121°